Munising, MI

4:07 AM EST on December 16, 2017 (GMT -0500)
Munising

Weather History for KP53 - March, 2014

Change the Weather History Date:

Monday, March 31, 2014

  Actual Average (KISQ) Record (KISQ)
Temperature  
Mean Temperature 42 °F -  
Max Temperature 51 °F 40 °F 60 °F (1963)
Min Temperature 32 °F 23 °F -10 °F (1975)
Degree Days  
Heating Degree Days 24    
Moisture  
Dew Point 25 °F    
Average Humidity 54    
Maximum Humidity 72    
Minimum Humidity 36    
Precipitation  
Precipitation 0.00 in - - ()
Sea Level Pressure  
Sea Level Pressure 29.95 in    
Wind  
Wind Speed 9 mph (South)    
Max Wind Speed 17 mph    
Max Gust Speed 26 mph    
Averages and records for this station are not official NWS values.
T = Trace of Precipitation, MM = Missing Value Source: NWS Daily Summary

Daily Weather History Graph

Daily Weather History Graph

Search for Another Location

Airport or City:

Trip Planner

Search our weather history database for the weather conditions in past years. The results will help you decide how hot, cold, wet, or windy it might be!

Date:

Astronomy

Mar. 31, 2014 Rise Set
Actual Time 7:28 AM EDT 8:14 PM EDT
Civil Twilight 6:57 AM EDT 8:44 PM EDT
Nautical Twilight 6:21 AM EDT 9:20 PM EDT
Astronomical Twilight 5:43 AM EDT 9:58 PM EDT
Moon 7:47 AM EDT (3/31) 9:37 PM EDT (3/31)
Length of Visible Light 13h 46m
Length of Day
12h 46m
New Moon, 1% of the Moon is Illuminated
Mar 31
New Moon
Apr 7
First Quarter
Apr 15
Full
Apr 22
Last Quarter
Apr 29
New

Hourly Weather History & Observations

Time (EDT) Temp. Windchill Dew Point Humidity Pressure Visibility Wind Dir Wind Speed Gust Speed Precip Events Conditions
12:56 AM 34.0 °F 28.0 °F 24.1 °F 67% 30.08 in - South 6.9 mph - N/A   Unknown
1:56 AM 34.0 °F 28.0 °F 24.1 °F 67% 30.08 in - South 6.9 mph - N/A   Unknown
2:56 AM 33.1 °F 26.1 °F 25.0 °F 72% 30.08 in - South 8.1 mph - N/A   Unknown
3:56 AM 34.0 °F 28.0 °F 25.0 °F 70% 30.06 in - SSW 6.9 mph - N/A   Unknown
4:56 AM 34.0 °F 28.0 °F 24.1 °F 67% 30.07 in - SSW 6.9 mph - N/A   Unknown
5:56 AM 33.1 °F 26.9 °F 23.0 °F 66% 30.07 in - SSW 6.9 mph - N/A   Unknown
6:56 AM 33.1 °F 28.7 °F 21.9 °F 64% 30.06 in - Variable 4.6 mph - N/A   Unknown
7:56 AM 32.0 °F 26.4 °F 21.0 °F 64% 30.07 in - SSW 5.8 mph - N/A   Unknown
8:56 AM 34.0 °F 28.8 °F 21.9 °F 61% 30.06 in - SSW 5.8 mph - N/A   Unknown
9:56 AM 37.9 °F 30.9 °F 23.0 °F 55% 30.05 in - South 10.4 mph - N/A   Unknown
10:56 AM 42.1 °F 37.1 °F 24.1 °F 49% 30.04 in - SSE 8.1 mph - N/A   Unknown
11:56 AM 45.0 °F 40.6 °F 26.1 °F 48% 30.02 in - SSE 8.1 mph 17.3 mph N/A   Unknown
12:56 PM 46.0 °F 41.0 °F 26.1 °F 46% 30.01 in - SSE 10.4 mph - N/A   Unknown
1:56 PM 48.0 °F - 28.0 °F 46% 29.98 in - South 13.8 mph 26.5 mph N/A   Unknown
2:56 PM 48.9 °F - 28.0 °F 44% 29.93 in - SSE 11.5 mph 23.0 mph N/A   Unknown
3:56 PM 50.0 °F - 27.0 °F 41% 29.89 in - SSE 11.5 mph 24.2 mph N/A   Unknown
4:56 PM 51.1 °F - 25.0 °F 36% 29.86 in - SSE 16.1 mph 25.3 mph N/A   Unknown
5:56 PM 51.1 °F - 26.1 °F 38% 29.85 in - SSE 10.4 mph - N/A   Unknown
6:56 PM 48.0 °F - 27.0 °F 44% 29.82 in - SSE 10.4 mph 20.7 mph N/A   Unknown
7:56 PM 46.9 °F - 27.0 °F 46% 29.79 in - SE 13.8 mph 19.6 mph N/A   Unknown
8:56 PM 45.0 °F 38.9 °F 27.0 °F 49% 29.79 in - SSE 12.7 mph 24.2 mph N/A   Unknown
9:56 PM 45.0 °F 37.6 °F 27.0 °F 49% 29.74 in - SE 17.3 mph 26.5 mph N/A   Unknown
10:56 PM 43.0 °F 37.2 °F 27.0 °F 53% 29.74 in - SSE 10.4 mph 21.9 mph N/A   Unknown
11:56 PM 43.0 °F 36.4 °F 28.9 °F 58% 29.75 in - SSE 12.7 mph 19.6 mph N/A   Unknown